Weather History for Lone Rock, WI

Change the Weather History Date:

Monday, June 24, 2013

  Actual Average Record
Temperature  
Mean Temperature 73 °F -  
Max Temperature 79 °F 79 °F 91 °F (2003)
Min Temperature 68 °F 56 °F 45 °F (2004)
Cooling Degree Days 8    
Growing Degree Days 23 (Base 50)    
Moisture  
Dew Point 66 °F    
Average Humidity 82    
Maximum Humidity 93    
Minimum Humidity 66    
Precipitation  
Precipitation 0.10 in - - ()
Sea Level Pressure  
Sea Level Pressure 29.92 in    
Wind  
Wind Speed 5 mph (SSW)    
Max Wind Speed 12 mph    
Max Gust Speed 18 mph    
Visibility 8 miles    
Events Rain , Thunderstorm    
Averages and records for this station are not official NWS values.
T = Trace of Precipitation, MM = Missing Value Source: NWS Daily Summary

Daily Weather History Graph

Daily Weather History Graph

Search for Another Location

Airport:

Trip Planner

Search our weather history database for the weather conditions in past years. The results will help you decide how hot, cold, wet, or windy it might be!

Date:

Astronomy

Jun. 24, 2013 Rise Set
Actual Time 5:21 AM CDT 8:44 PM CDT
Civil Twilight 4:46 AM CDT 9:20 PM CDT
Nautical Twilight 3:59 AM CDT 10:06 PM CDT
Astronomical Twilight 3:01 AM CDT 11:04 PM CDT
Moon 9:43 PM CDT (6/24) 6:52 AM CDT (6/24)
Length of Visible Light 16h 34m
Length of Day
15h 22m
Full, 98% of the Moon is Illuminated
Jun 24
Full
Jun 29
Last Quarter
Jul 8
New
Jul 15
First Quarter
Jul 22
Full

Hourly Weather History & Observations

Time (CDT) Temp. Dew Point Humidity Pressure Visibility Wind Dir Wind Speed Gust Speed Precip Events Conditions
12:56 AM 73.0 °F 64.9 °F 76% 29.92 in 10.0 mi SSW 6.9 mph - N/A   Clear
1:56 AM 71.1 °F 66.0 °F 84% 29.92 in 10.0 mi Calm Calm - N/A   Scattered Clouds
2:56 AM 69.1 °F 64.9 °F 87% 29.92 in 10.0 mi Calm Calm - N/A   Clear
3:56 AM 69.1 °F 66.0 °F 90% 29.93 in 10.0 mi Calm Calm - N/A   Overcast
4:56 AM 68.0 °F 66.0 °F 93% 29.92 in 9.0 mi Calm Calm - N/A   Clear
5:56 AM 69.1 °F 66.0 °F 90% 29.94 in 7.0 mi Calm Calm - N/A   Mostly Cloudy
6:56 AM 70.0 °F 66.9 °F 90% 29.93 in 8.0 mi ENE 4.6 mph - N/A   Scattered Clouds
7:56 AM 72.0 °F 66.9 °F 84% 29.96 in 10.0 mi SSW 3.5 mph - N/A   Overcast
8:56 AM 72.0 °F 66.0 °F 81% 29.99 in 10.0 mi South 10.4 mph - N/A   Mostly Cloudy
9:32 AM 71.6 °F 66.2 °F 83% 30.01 in 10.0 mi SSE 8.1 mph - N/A   Overcast
9:49 AM 71.6 °F 64.4 °F 78% 29.99 in 10.0 mi South 8.1 mph - N/A   Scattered Clouds
9:56 AM 73.0 °F 64.9 °F 76% 29.96 in 10.0 mi South 9.2 mph - N/A   Partly Cloudy
10:56 AM 73.9 °F 64.9 °F 73% 29.98 in 10.0 mi SSW 8.1 mph 16.1 mph N/A   Clear
11:56 AM 75.9 °F 66.9 °F 74% 29.95 in 10.0 mi SSW 5.8 mph - N/A   Clear
12:56 PM 77.0 °F 64.9 °F 66% 29.96 in 10.0 mi West 6.9 mph - N/A   Clear
1:56 PM 77.0 °F 64.9 °F 66% 29.90 in 10.0 mi WSW 8.1 mph - N/A   Clear
2:56 PM 78.1 °F 66.9 °F 68% 29.89 in 10.0 mi SSW 10.4 mph - N/A   Clear
3:40 PM 75.2 °F 66.2 °F 73% 29.94 in 10.0 mi SW 8.1 mph - N/A   Overcast
3:56 PM 75.9 °F 66.9 °F 74% 29.91 in 10.0 mi SW 11.5 mph 18.4 mph N/A   Mostly Cloudy
4:14 PM 75.2 °F 66.2 °F 73% 29.94 in 10.0 mi SW 6.9 mph - N/A   Mostly Cloudy
4:56 PM 73.9 °F 66.9 °F 79% 29.90 in 9.0 mi SW 8.1 mph - N/A   Partly Cloudy
5:51 PM 71.6 °F 66.2 °F 83% 29.86 in 5.0 mi ESE 6.9 mph - 0.01 in Rain , Thunderstorm Light Rain
5:56 PM 72.0 °F 66.9 °F 84% 29.83 in 5.0 mi ESE 3.5 mph - 0.02 in Rain , Thunderstorm Light Rain
6:06 PM 71.6 °F 66.2 °F 83% 29.86 in 5.0 mi ENE 3.5 mph - 0.01 in Rain Light Rain
6:56 PM 72.0 °F 68.0 °F 87% 29.83 in 7.0 mi Calm Calm - 0.02 in   Clear
7:56 PM 71.1 °F 68.0 °F 90% 29.86 in 6.0 mi West 3.5 mph - 0.01 in   Clear
8:56 PM 70.0 °F 68.0 °F 93% 29.85 in 6.0 mi Calm Calm - N/A   Scattered Clouds
9:56 PM 69.1 °F 66.9 °F 93% 29.88 in 5.0 mi Calm Calm - N/A   Overcast
10:56 PM 69.1 °F 66.9 °F 93% 29.88 in 7.0 mi Calm Calm - 0.00 in   Mostly Cloudy
11:44 PM 69.8 °F 66.2 °F 88% 29.90 in 2.0 mi North 5.8 mph - 0.03 in Rain , Thunderstorm Light Rain
11:53 PM 69.8 °F 66.2 °F 88% 29.91 in 4.0 mi NW 4.6 mph - 0.04 in Rain , Thunderstorm Light Rain
11:56 PM 69.1 °F 66.9 °F 93% 29.91 in 4.0 mi WNW 3.5 mph - 0.05 in Rain , Thunderstorm Rain